Terug naar catalogus

FENGYUN 1C DEB

ActiefSSO
NORAD 36679·DEBRIS·🇨🇳 China

Gelanceerd May 10, 1999 vanaf Taiyuan Satellite Launch Center

Loading…

Volgende Passages (komende 24 uur)

TLE

VerouderendSource: Space-Track

Epoch: Sep 4, 2026, 17:13 UTC

1 36679U 99025DYZ 26247.71750121  .00000488  00000-0  31823-3 0  9991
2 36679  98.8496 242.1182 0086275  69.3629 291.6765 14.05052926282833

Volg FENGYUN 1C DEB in realtime met AllMySat

Download on the App Store